Weather History for Niagara Falls, NY

Change the Weather History Date:

Sunday, December 22, 2013

  Actual Average Record
Temperature  
Mean Temperature 34 °F -  
Max Temperature 37 °F 32 °F 57 °F (1990)
Min Temperature 30 °F 20 °F 4 °F (1989)
Degree Days  
Heating Degree Days 32    
Moisture  
Dew Point 32 °F    
Average Humidity 94    
Maximum Humidity 100    
Minimum Humidity 86    
Precipitation  
Precipitation 0.10 in - - ()
Sea Level Pressure  
Sea Level Pressure 29.71 in    
Wind  
Wind Speed 15 mph (ENE)    
Max Wind Speed 26 mph    
Max Gust Speed 36 mph    
Visibility 5 miles    
Events Rain    
Averages and records for this station are not official NWS values.
T = Trace of Precipitation, MM = Missing Value Source: NWS Daily Summary

Daily Weather History Graph

Daily Weather History Graph

Search for Another Location

Airport:

Trip Planner

Search our weather history database for the weather conditions in past years. The results will help you decide how hot, cold, wet, or windy it might be!

Date:

Astronomy

Dec. 22, 2013 Rise Set
Actual Time 7:44 AM EST 4:44 PM EST
Civil Twilight 7:12 AM EST 5:16 PM EST
Nautical Twilight 6:36 AM EST 5:52 PM EST
Astronomical Twilight 6:01 AM EST 6:27 PM EST
Moon 10:02 PM EST (12/22) 10:33 AM EST (12/22)
Length of Visible Light 10h 04m
Length of Day
8h 59m
Waning Gibbous, 77% of the Moon is Illuminated
Dec 22
Waning Gibbous
Dec 25
Last Quarter
Jan 1
New
Jan 7
First Quarter
Jan 15
Full

Hourly Weather History & Observations

Time (EST) Temp. Windchill Dew Point Humidity Pressure Visibility Wind Dir Wind Speed Gust Speed Precip Events Conditions
12:53 AM 30.9 °F 18.4 °F 28.0 °F 89% 29.75 in 4.0 mi East 20.7 mph 28.8 mph N/A Rain Light Freezing Rain
1:27 AM 30.2 °F 16.2 °F 28.4 °F 93% 29.67 in 3.0 mi ENE 25.3 mph 34.5 mph N/A Rain Light Freezing Rain
1:36 AM 30.2 °F 16.5 °F 28.4 °F 93% 29.65 in 2.0 mi ENE 24.2 mph 33.4 mph N/A Rain Light Freezing Rain
1:53 AM 30.9 °F 18.4 °F 28.9 °F 92% 29.69 in 2.0 mi ENE 20.7 mph 31.1 mph N/A Rain Light Freezing Rain
1:58 AM 30.2 °F 17.1 °F 28.4 °F 93% 29.62 in 2.0 mi ENE 21.9 mph 29.9 mph 0.00 in Rain Light Freezing Rain
2:20 AM 30.2 °F 15.9 °F 28.4 °F 93% 29.60 in 1.8 mi ENE 26.5 mph 35.7 mph N/A Rain Light Freezing Rain
2:33 AM 30.2 °F 16.5 °F 28.4 °F 93% 29.62 in 1.8 mi ENE 24.2 mph 31.1 mph N/A Rain Light Freezing Rain
2:53 AM 30.9 °F 18.7 °F 28.9 °F 92% 29.67 in 1.8 mi ENE 19.6 mph 33.4 mph N/A Rain Light Freezing Rain
3:02 AM 30.2 °F 18.1 °F 28.4 °F 93% 29.68 in 1.8 mi NE 18.4 mph 26.5 mph 0.00 in Rain Light Freezing Rain
3:13 AM 30.2 °F 18.5 °F 28.4 °F 93% 29.68 in 2.0 mi NNE 17.3 mph - N/A Rain Light Freezing Rain
3:19 AM 30.2 °F 17.8 °F 28.4 °F 93% 29.69 in 3.0 mi NNE 19.6 mph - N/A Rain Light Freezing Rain
3:35 AM 30.2 °F 19.8 °F 28.4 °F 93% 29.70 in 2.5 mi NNE 13.8 mph 29.9 mph N/A Rain Light Freezing Rain
3:44 AM 30.2 °F 17.4 °F 28.4 °F 93% 29.66 in 2.5 mi NE 20.7 mph 26.5 mph N/A Rain Light Freezing Rain
3:53 AM 30.9 °F 21.2 °F 28.9 °F 92% 29.70 in 2.5 mi NE 12.7 mph 29.9 mph N/A Rain Light Freezing Rain
4:00 AM 30.2 °F - 28.4 °F 93% 29.64 in 3.0 mi North - - 0.00 in Rain Light Freezing Rain
4:22 AM 30.2 °F 17.8 °F 28.4 °F 93% 29.60 in 10.0 mi East 19.6 mph 29.9 mph 0.00 in   Overcast
4:38 AM 30.2 °F - 28.4 °F 93% 29.65 in - North - - 0.00 in   Unknown
4:53 AM - - - N/A% 29.63 in - North - - 0.00 in   Unknown
5:53 AM - - - N/A% 29.65 in - North - - N/A   Unknown
6:53 AM - - - N/A% 29.64 in - North - - N/A   Unknown
7:16 AM 33.8 °F - 32.0 °F 93% 29.67 in 10.0 mi Calm Calm - N/A   Overcast
7:53 AM 32.5 °F 23.2 °F 30.6 °F 92% 29.69 in 10.0 mi ENE 12.7 mph - N/A   Overcast
8:35 AM 33.8 °F 24.8 °F 32.0 °F 93% 29.64 in 8.0 mi ENE 12.7 mph - N/A   Overcast
8:53 AM 33.1 °F 24.9 °F 31.3 °F 93% 29.65 in 8.0 mi ENE 10.4 mph 16.1 mph N/A   Overcast
8:57 AM 33.8 °F 24.8 °F 32.0 °F 93% 29.62 in 8.0 mi ENE 12.7 mph - N/A Rain Light Freezing Rain
9:10 AM 33.8 °F 25.3 °F 32.0 °F 93% 29.64 in 2.5 mi NE 11.5 mph - N/A Rain Light Freezing Rain
9:28 AM 33.8 °F 24.3 °F 33.8 °F 100% 29.63 in 3.0 mi ENE 13.8 mph - N/A Rain Light Rain
9:43 AM 33.8 °F 25.8 °F 33.8 °F 100% 29.64 in 2.0 mi ENE 10.4 mph - N/A Rain Light Rain
9:47 AM 33.8 °F 25.8 °F 33.8 °F 100% 29.64 in 3.0 mi ENE 10.4 mph - N/A Rain Light Rain
9:53 AM 33.6 °F 26.2 °F 33.6 °F 100% 29.67 in 5.0 mi ENE 9.2 mph - N/A Rain Light Rain
10:19 AM 33.8 °F 26.4 °F 33.8 °F 100% 29.63 in 7.0 mi ENE 9.2 mph - N/A   Overcast
10:34 AM 33.8 °F 25.3 °F 33.8 °F 100% 29.64 in 5.0 mi ENE 11.5 mph - N/A   Light Drizzle
10:53 AM 33.4 °F 26.6 °F 33.3 °F 99% 29.67 in 3.0 mi ENE 8.1 mph - N/A Rain Light Rain
11:07 AM 33.8 °F 27.0 °F 33.8 °F 100% 29.61 in 3.0 mi NE 8.1 mph - N/A Rain Light Rain
11:22 AM 33.8 °F 27.7 °F 33.8 °F 100% 29.63 in 2.5 mi SE 6.9 mph - N/A   Light Drizzle
11:32 AM 33.8 °F 25.8 °F 33.8 °F 100% 29.65 in 1.5 mi WNW 10.4 mph - N/A Rain Light Rain
11:38 AM 33.8 °F 24.3 °F 33.8 °F 100% 29.66 in 1.5 mi North 13.8 mph - N/A Rain Rain
11:43 AM 33.8 °F 24.3 °F 33.8 °F 100% 29.65 in 3.0 mi North 13.8 mph - N/A Rain Light Rain
11:51 AM 33.8 °F 26.4 °F 33.8 °F 100% 29.65 in 1.5 mi NNW 9.2 mph - N/A Rain Light Rain
11:53 AM 33.6 °F 26.2 °F 33.4 °F 99% 29.69 in 2.0 mi NNW 9.2 mph - N/A Rain Light Rain
11:59 AM 33.8 °F 27.7 °F 33.8 °F 100% 29.65 in 1.0 mi North 6.9 mph - N/A Rain Light Rain
12:01 PM 33.8 °F 27.7 °F 33.8 °F 100% 29.64 in 2.0 mi North 6.9 mph - N/A Rain Light Rain
12:14 PM 32.0 °F 24.2 °F 32.0 °F 100% 29.63 in 2.5 mi ENE 9.2 mph - N/A Rain Light Rain
12:18 PM 32.0 °F 25.6 °F 32.0 °F 100% 29.63 in 3.0 mi ENE 6.9 mph - N/A Rain Light Rain
12:29 PM 32.0 °F 24.2 °F 32.0 °F 100% 29.64 in 2.0 mi ENE 9.2 mph - N/A   Light Drizzle
12:34 PM 32.0 °F 28.7 °F 30.2 °F 93% 29.65 in 1.2 mi NE 3.5 mph - N/A Rain Light Rain
12:41 PM 32.0 °F 25.6 °F 30.2 °F 93% 29.63 in 3.0 mi ENE 6.9 mph - N/A Rain Light Rain
12:53 PM 32.0 °F 26.4 °F 30.9 °F 96% 29.68 in 4.0 mi East 5.8 mph - N/A   Light Drizzle
1:00 PM 32.0 °F 26.4 °F 30.2 °F 93% 29.63 in 9.0 mi East 5.8 mph - 0.00 in   Overcast
1:06 PM 32.0 °F 27.5 °F 30.2 °F 93% 29.64 in 10.0 mi ESE 4.6 mph - 0.00 in   Overcast
1:26 PM 32.0 °F 27.5 °F 30.2 °F 93% 29.66 in 3.0 mi South 4.6 mph - 0.00 in Rain Light Rain
1:53 PM 32.0 °F 26.4 °F 30.9 °F 96% 29.72 in 6.0 mi SSW 5.8 mph - 0.00 in   Light Drizzle
2:13 PM 33.8 °F 28.6 °F 30.2 °F 87% 29.68 in 4.0 mi South 5.8 mph - 0.00 in   Light Drizzle
2:53 PM 33.1 °F 26.9 °F 30.9 °F 92% 29.74 in 3.0 mi SSW 6.9 mph - 0.00 in   Light Drizzle
3:33 PM 33.8 °F 25.8 °F 32.0 °F 93% 29.73 in 6.0 mi SSW 10.4 mph - 0.00 in   Overcast
3:53 PM 35.1 °F 27.4 °F 33.1 °F 92% 29.78 in 10.0 mi SSW 10.4 mph - 0.00 in   Mostly Cloudy
4:11 PM 35.6 °F 27.5 °F 33.8 °F 93% 29.76 in 10.0 mi SW 11.5 mph - N/A   Overcast
4:49 PM 37.4 °F 32.1 °F 35.6 °F 93% 29.79 in 10.0 mi WSW 6.9 mph - N/A   Overcast
4:53 PM 36.0 °F 30.3 °F 34.0 °F 93% 29.83 in 10.0 mi WSW 6.9 mph - N/A   Overcast
5:19 PM 37.4 °F 29.8 °F 35.6 °F 93% 29.82 in 9.0 mi West 11.5 mph - N/A   Overcast
5:53 PM 37.0 °F 31.0 °F 35.1 °F 93% 29.86 in 6.0 mi WSW 8.1 mph - N/A   Overcast
6:32 PM 37.4 °F 32.1 °F 35.6 °F 93% 29.86 in 7.0 mi WSW 6.9 mph - N/A   Overcast
6:53 PM 37.0 °F 31.6 °F 35.1 °F 93% 29.88 in 6.0 mi WSW 6.9 mph - N/A   Overcast
7:53 PM 37.9 °F 30.5 °F 35.1 °F 89% 29.94 in 8.0 mi WSW 11.5 mph 18.4 mph N/A   Overcast
8:26 PM 37.4 °F 30.3 °F 35.6 °F 93% 29.91 in 10.0 mi WSW 10.4 mph - N/A   Overcast
8:53 PM 37.9 °F 31.5 °F 34.0 °F 86% 29.94 in 9.0 mi WSW 9.2 mph - N/A   Overcast
9:53 PM 37.0 °F 31.6 °F 35.1 °F 93% 29.96 in 10.0 mi SW 6.9 mph - N/A   Overcast
10:20 PM 37.4 °F 30.8 °F 33.8 °F 87% 29.94 in 10.0 mi SW 9.2 mph - N/A   Overcast
10:53 PM 37.0 °F 29.8 °F 34.0 °F 89% 29.98 in 10.0 mi SW 10.4 mph - N/A   Overcast
11:21 PM 37.4 °F 30.8 °F 33.8 °F 87% 29.93 in 10.0 mi SW 9.2 mph - N/A   Overcast
11:53 PM 37.0 °F 29.8 °F 34.0 °F 89% 29.97 in 10.0 mi SSW 10.4 mph - N/A   Overcast